Date,TemperatureHighF,TemperatureAvgF,TemperatureLowF,DewpointHighF,DewpointAvgF,DewpointLowF,HumidityHigh,HumidityAvg,HumidityLow,PressureMaxIn,PressureMinIn,WindSpeedMaxMPH,WindSpeedAvgMPH,GustSpeedMaxMPH,PrecipitationSumIn
2013-7-1,94.6,79.7,67.1,69.0,64.0,59.6,90,62,37,29.97,29.84,6,1,6,0.00
2013-7-2,96.6,79.5,66.7,69.7,65.0,62.3,93,64,38,30.06,29.94,5,1,5,0.00
2013-7-3,96.3,77.7,67.8,71.8,67.2,63.3,95,73,40,30.08,29.98,7,1,7,0.04
2013-7-4,97.0,79.2,68.4,72.7,69.6,66.3,99,76,41,30.04,29.95,6,1,6,0.00
2013-7-5,85.8,76.0,70.2,74.7,71.1,67.9,97,85,67,30.06,29.98,12,2,12,0.18
2013-7-6,95.2,78.7,69.4,73.7,70.6,67.6,97,79,44,30.07,29.98,11,2,11,0.00
2013-7-7,99.1,80.0,73.8,76.1,72.8,70.4,94,81,42,30.14,30.02,10,2,10,0.00
2013-7-8,101.3,81.4,72.1,75.7,72.5,69.5,98,78,40,30.20,30.09,8,2,8,0.00
2013-7-9,101.3,82.8,72.1,78.4,72.8,69.6,97,76,38,30.23,30.10,9,1,9,0.26
2013-7-10,100.2,85.6,74.3,79.0,73.6,70.7,98,71,41,30.15,29.99,9,1,9,0.01
2013-7-11,96.6,76.6,70.5,76.0,72.0,68.2,98,87,50,30.07,29.94,11,2,11,0.59
2013-7-12,100.8,82.8,70.0,76.4,69.9,64.3,98,70,34,30.00,29.90,5,1,5,0.00
2013-7-13,99.3,81.7,69.1,71.7,68.4,65.1,91,66,40,29.99,29.92,4,1,4,0.00
2013-7-14,98.4,78.4,70.0,74.1,70.6,67.6,94,79,41,30.06,29.95,11,1,11,0.02
2013-7-15,96.8,79.8,69.8,74.9,70.8,68.0,94,77,41,30.17,30.04,8,2,8,0.00
2013-7-16,93.6,79.5,71.2,75.0,72.2,70.1,97,80,51,30.23,30.13,14,2,14,0.00
2013-7-17,99.5,82.2,72.0,78.6,72.8,68.7,97,77,38,30.27,30.15,7,1,7,0.00
2013-7-18,101.1,80.1,70.9,73.6,70.8,65.0,96,77,36,30.23,30.05,8,1,8,0.06
2013-7-19,99.7,83.3,70.5,79.3,70.9,64.7,97,70,36,30.12,29.98,8,1,8,0.00
2013-7-20,102.6,80.8,71.4,78.2,71.0,68.4,96,75,39,30.03,29.96,9,1,9,0.00
2013-7-21,98.6,79.9,72.7,78.4,72.7,69.8,97,80,41,30.09,30.00,9,2,9,0.13
2013-7-22,98.6,79.2,73.6,77.5,73.2,71.2,95,84,44,30.09,30.01,8,2,9,0.06
2013-7-23,98.1,84.5,74.8,77.7,73.9,69.4,97,73,42,30.09,29.94,9,2,9,0.00
2013-7-24,96.6,83.0,72.9,76.1,72.6,68.2,95,73,44,30.01,29.91,15,2,15,0.02
2013-7-25,98.8,81.3,72.0,75.7,71.0,66.7,99,74,39,30.08,29.95,4,2,4,0.00
2013-7-26,99.0,82.6,67.6,71.7,67.9,63.8,94,65,33,30.11,29.99,5,1,5,0.00
2013-7-27,86.4,77.9,74.3,80.2,74.4,71.0,97,89,65,30.00,29.89,8,1,8,0.94
2013-7-28,96.3,81.3,71.2,74.3,72.0,68.7,98,76,43,30.06,29.92,4,1,4,0.00
2013-7-29,101.7,86.0,73.2,76.4,72.8,69.1,98,69,39,30.15,30.03,5,1,5,0.00
2013-7-30,101.3,86.4,75.0,77.8,73.9,70.0,97,69,40,30.19,30.09,6,1,6,0.00
2013-7-31,101.1,86.4,76.5,75.8,72.9,67.1,92,67,39,30.15,29.99,7,1,7,0.00